www.pogodaiklimat.ru

Погода и климат >> Архив погоды >> Кувейт >> Nuwasib


ПОГОДА в Nuwasib

  • Прогноз погоды в Nuwasib
  • Монитор погоды в Nuwasib
  • Климат города

АРХИВ ПОГОДЫ в Nuwasib

Время (UTC), дата Ветер
(напр.,м/с)
 
Видим.   Явления Облачность Т
(С)
Тd
(С)
f
(%)
Тe
(С)
Тes
(С)
Комфортность P
(гПа)
Po
(гПа)
Тmin
(С)
Tmax
(С)
R
(мм)
R24
(мм)
S
(см)
21 18.06 СЗ 3-5
{5}
н/о н/о +35.1 +3.4 14 +32 +32 жарко 1000.5 1001.0 +32.0 +46.2
00 19.06 СЗ 4-7
{8}
н/о н/о +34.0 +4.6 16 +31 +31 жарко 1001.0 1001.0
03 19.06 СЗ 3-5
{6}
н/о н/о +32.5 +6.3 19 +30 +30 жарко 1002.2 1002.0
06 19.06 С 8-13
{14}
н/о н/о +38.7 +5.4 13 +36 +36 очень
жарко
1003.1 1003.0
09 19.06 С 8-12
{14}
н/о н/о +42.0 +5.8 11 +39 +39 очень
жарко
1003.3 1003.0
12 19.06 СВ 5-9
{14}
н/о н/о +41.2 +13.6 20 +41 +41 опасность
перегрева
1002.5 1003.0
15 19.06 СВ 5-8
{9}
н/о н/о +38.6 +15.6 26 +40 +40 очень
душно
1002.4 1002.0
18 19.06 С 5-8
{9}
н/о н/о +37.6 +13.1 23 +38 +38 очень
жарко
1003.6 1004.0
21 19.06 С 3-5
{10}
н/о н/о +35.8 +8.3 19 +34 +34 очень
жарко
1003.5 1004.0 +31.8 +43.1
00 20.06 СЗ 4-6
{10}
н/о н/о +32.5 +5.1 18 +30 +30 жарко 1002.6 1003.0
03 20.06 СЗ 3-6
{8}
н/о н/о +32.1 +3.9 17 +30 +30 жарко 1003.7 1004.0
06 20.06 С 6-12
{12}
н/о н/о +40.8 +2.9 10 +38 +38 очень
жарко
1004.0 1004.0
09 20.06 С 10-16
{16}
н/о н/о +44.1 +5.0 10 +41 +41 опасность
перегрева
1003.2 1003.0
15 20.06 С 7-12
{17}
н/о н/о +43.0 +6.1 11 +40 +40 очень
жарко
1002.0 1002.0
18 20.06 С 3-6
{17}
н/о н/о +38.9 +4.7 12 +36 +36 очень
жарко
1003.5 1004.0
21 20.06 СЗ 3-7
{7}
н/о н/о +34.9 +3.9 14 +32 +32 жарко 1003.3 1003.0 +31.0 +46.0
00 21.06 СЗ 4-6
{7}
н/о н/о +32.4 +4.7 18 +30 +30 жарко 1003.0 1003.0
03 21.06 СЗ 3-7
{8}
н/о н/о +32.4 +4.1 17 +30 +30 жарко 1004.2 1004.0
06 21.06 С 6-10
{12}
н/о н/о +38.8 +7.2 15 +37 +37 очень
жарко
1005.0 1005.0
09 21.06 С 10-17
{17}
н/о н/о +43.2 +5.0 10 +40 +40 очень
жарко
1003.4 1003.0
12 21.06 С 8-13
{17}
н/о н/о +42.7 +8.2 13 +41 +41 опасность
перегрева
1002.3 1002.0
15 21.06 С 7-11
{16}
н/о н/о +41.3 +5.3 11 +38 +38 очень
жарко
1002.4 1002.0
18 21.06 С 5-8
{16}
н/о н/о +39.6 +2.1 10 +36 +36 очень
жарко
1004.2 1004.0
21 21.06 СЗ 3-5
{10}
н/о н/о +35.4 +3.3 13 +32 +32 жарко 1004.0 1004.0 +30.6 +44.6
00 22.06 СЗ 2-4
{10}
н/о н/о +30.8 +3.6 18 +29 +29 жарко 1003.2 1003.0
03 22.06 СЗ 3-7
{7}
н/о н/о +30.4 +4.9 20 +29 +29 жарко 1004.0 1004.0
06 22.06 С 6-12
{12}
н/о н/о +38.2 +3.9 12 +35 +35 очень
жарко
1004.0 1004.0
09 22.06 С 6-11
{15}
н/о н/о +43.2 -0.1 7 +39 +39 очень
жарко
1002.5 1003.0
12 22.06 СВ 7-11
{15}
н/о н/о +40.4 +2.3 10 +39 +39 очень
жарко
1000.8 1001.0
15 22.06 С 6-9
{12}
н/о н/о +41.0 +5.5 12 +38 +38 очень
жарко
1000.2 1000.0
18 22.06 СЗ 5-10
{12}
н/о н/о +38.8 +3.7 11 +36 +36 очень
жарко
1001.9 1002.0
21 22.06 СЗ 2-5
{11}
н/о н/о +33.9 +4.7 16 +31 +31 жарко 1002.3 1002.0 +29.1 +43.6
00 23.06 СЗ 2-4
{11}
н/о н/о +29.8 +6.2 23 +29 +29 жарко 1002.1 1002.0
03 23.06 З 3-5
{6}
н/о н/о +29.0 +5.4 22 +28 +28 жарко 1003.4 1003.0
06 23.06 С 7-12
{14}
н/о н/о +37.3 +4.6 13 +34 +34 очень
жарко
1004.0 1004.0
09 23.06 СВ 6-10
{15}
н/о н/о +38.0 +12.4 22 +38 +38 очень
жарко
1002.6 1003.0
12 23.06 СВ 6-10
{15}
н/о н/о +38.7 +15.4 25 +40 +40 очень
душно
1000.8 1001.0
15 23.06 С 4-7
{10}
н/о н/о +38.7 +8.5 16 +37 +37 очень
жарко
1000.6 1001.0
18 23.06 СЗ 4-9
{10}
н/о н/о +37.0 +1.0 10 +33 +33 жарко 1001.8 1002.0
21 23.06 СЗ 3-6
{8}
н/о н/о +33.0 +0.5 13 +30 +30 жарко 1001.9 1002.0 +28.3 +40.7
00 24.06 СЗ 3-6
{8}
н/о н/о +30.2 -0.8 13 +27 +27 жарко 1001.8 1002.0
03 24.06 З 3-5
{8}
н/о н/о +29.7 +2.6 18 +28 +28 жарко 1002.6 1003.0
06 24.06 С 5-8
{9}
н/о н/о +38.0 +4.1 12 +35 +35 очень
жарко
1003.0 1003.0
09 24.06 СВ 5-8
{9}
н/о н/о +39.3 +6.9 14 +37 +37 очень
жарко
1002.7 1003.0
12 24.06 СВ 4-7
{9}
н/о н/о +40.8 +6.3 12 +38 +38 очень
жарко
1001.0 1001.0
15 24.06 В 1-2
{7}
н/о н/о +40.2 +3.5 11 +37 +37 очень
жарко
1000.0 1000.0
18 24.06 ЮЗ 5-6
{7}
н/о н/о +34.7 +5.3 16 +32 +32 жарко 1001.3 1001.0
21 24.06 З 2-4
{7}
н/о н/о +32.6 +3.5 16 +30 +30 жарко 1000.9 1001.0 +28.1 +41.5
00 25.06 СЗ 3-7
{7}
н/о н/о +31.7 +4.3 18 +29 +29 жарко 1000.8 1001.0
03 25.06 СЗ 3-6
{7}
н/о н/о +31.7 +5.0 19 +30 +30 жарко 1002.0 1002.0
06 25.06 С 4-8
{8}
н/о н/о +40.1 +4.4 11 +37 +37 очень
жарко
1002.4 1002.0
09 25.06 СВ 5-9
{10}
н/о н/о +41.3 +9.1 15 +40 +40 очень
жарко
1001.3 1001.0
12 25.06 СВ 4-8
{10}
н/о н/о +41.3 +8.8 14 +39 +39 очень
жарко
999.5 1000.0
15 25.06 ЮВ 3-4
{8}
н/о н/о +36.7 +16.3 30 +39 +39 очень
душно
998.9 999.0
18 25.06 ЮЗ 3-4
{8}
н/о н/о +34.4 +14.0 29 +35 +35 очень
жарко
999.6 1000.0

 

Местоположение метеостанции Nuwasib (Кувейт): широта 28.50 долгота 48.75 высота над уровнем моря 2 м.

В архиве по умолчанию представлена погода в Nuwasib за последнюю неделю. Архивные данные за месяц целиком и за предыдущие месяцы, начиная с января 2011 года, Вы можете получить, выбрав интересующий диапазон дат из раскрывающегося списка и нажав кнопку "Ввод!".


*Определитесь, кто Вы:
робот инопланетянин человек

Внимание! Время в таблицах - всемирное. Для получения местного времени необходимо прибавить поправку, которая в Nuwasib равна 3 ч.

Смотрите также архив погоды в соседних городах и на ближайших метеорологических станциях:

Погода в Umm-Al-Maradim (Кувейт) (22 км)
Погода в Juluiah Port (Кувейт) (62 км)
Погода в Al-Wafra (Кувейт) (68 км)
Погода в Kuwait (Кувейт) (110 км)
Погода в Al-Shuaiba (Кувейт) (114 км)
Погода в Kuwait City (Кувейт) (115 км)
Погода в Failaka Island (Кувейт) (117 км)
Погода в Experimental Farm (Кувейт) (118 км)
Погода в Sulaibiya (Кувейт) (132 км)
Погода в Minagish (Кувейт) (135 км)

Пояснения к столбцам:

Ветер - указаны скорость ветра в м/с - средняя за 10 мин, порывы в срок и между сроками (в фигурных скобках) и направление, откуда дует ветер: С - северный, СВ - северо-восточный, В - восточный, ЮВ - юго-восточный, Ю - южный, ЮЗ - юго-западный, З - западный, СЗ - северо-западный.
Видимость - горизонтальная дальность видимости в метрах или километрах. При видимости от 1 до 10 км при отсутствии осадков обычно наблюдается дымка, при ухудшении видимости до 1 км и менее - туман. В сухую погоду видимость может ухудшаться дымом, пылью или мглою.
Явления - указаны атмосферные явления, наблюдавшиеся в срок или в последний час перед сроком; фигурными скобками обозначены явления, наблюдавшиеся между сроками (за 1-3 часа до срока); квадратными скобками обозначены град или гололедные отложения с указанием их диаметра в мм.
Облачность - указаны через наклонную черту общая и нижняя облачность в баллах и высота нижней границы облаков в метрах; квадратными скобками обозначены формы облаков: Ci - перистые, Cs - перисто-слоистые, Cc - перисто-кучевые, Ac - высококучевые, As - высокослоистые, Sc - слоисто-кучевые, Ns - слоисто-дождевые, Cu - кучевые, Cb - кучево-дождевые. Подробнее классификацию облаков см. в Атласе облаков (PDF).
T - Температура воздуха - температура, измеренная на высоте 2 м над землей.
Td - Температура точки росы - температура, при понижении до которой содержащийся в воздухе водяной пар достигнет насыщения.
f - Относительная влажность воздуха - влажноcть воздуха, измеренная на высоте 2 м над землей.
Te - Эффективная температура - температура, которую ощущает одетый по сезону человек в тени. Характеристика душности погоды. При расчете учитывается влияние влажности воздуха и скорости ветра на теплоощущения человека.
Tes - Эффективная температура на солнце - температура, которую ощущает человек, с поправкой на солнечный нагрев. Характеристика знойности погоды. Зависит от высоты солнца над горизонтом, облачности и скорости ветра. Ночью, в пасмурную погоду, а также при ветре 12 м/с и более поправка равна нулю.
P - Атмосферное давление - приведенное к уровню моря атмосферное давление.
Po - Атмосферное давление - измеренное на уровне метеостанции атмосферное давление.
Tmin - Минимальная температура - минимум температуры воздуха на высоте 2 м над землей.
Tmax - Максимальная температура - максимум температуры воздуха на высоте 2 м над землей.
R - Количество осадков - Количество выпавших осадков за период времени, мм. При наведении курсора мыши на число - период времени, за который выпало указанное количество осадков.
R24 - Количество осадков - Количество выпавших осадков за 24 часа, мм.
S - Снежный покров - Высота снежного покрова, см. При наведении курсора мыши на число - состояние снежного покрова и степень покрытия местности в баллах.